| time (UTC) | temp F | wind direction | speed MPH | gust MPH | rain 1hr in | rain 24hr in | rain mn in | humidity % | barometer mb |
| 20260509183023 | 54 | 127 | 0.0 | 0.0 | 0.00 | 0.00 | 0.00 | 56 | 1022.6 |
| 20260509181513 | 54 | 208 | 0.0 | 0.0 | 0.00 | 0.00 | 0.00 | 51 | 1022.6 |
| 20260509180052 | 53 | 241 | 0.0 | 0.0 | 0.00 | 0.00 | 0.00 | 51 | 1022.6 |
| 20260509174553 | 52 | 298 | 0.0 | 0.0 | 0.00 | 0.00 | 0.00 | 56 | 1022.5 |
| 20260509173031 | 51 | 225 | 0.0 | 0.0 | 0.00 | 0.00 | 0.00 | 56 | 1022.5 |
| 20260509171530 | 51 | 4 | 0.0 | 0.0 | 0.00 | 0.00 | 0.00 | 60 | 1022.4 |
| 20260509170016 | 50 | 223 | 0.0 | 0.0 | 0.00 | 0.00 | 0.00 | 58 | 1022.5 |
| 20260509164516 | 50 | 202 | 0.0 | 0.0 | 0.00 | 0.00 | 0.00 | 59 | 1022.5 |
| 20260509163012 | 49 | 354 | 0.0 | 0.0 | 0.00 | 0.00 | 0.00 | 60 | 1022.4 |
| 20260509161508 | 48 | 231 | 0.0 | 0.0 | 0.00 | 0.00 | 0.00 | 65 | 1019.3 |
| 20260509160007 | 47 | 18 | 0.0 | 0.0 | 0.00 | 0.00 | 0.00 | 68 | 1022.6 |
| 20260509154502 | 47 | 148 | 0.0 | 0.0 | 0.00 | 0.00 | 0.00 | 72 | 1022.1 |
| 20260509153059 | 45 | 185 | 0.0 | 0.0 | 0.00 | 0.00 | 0.00 | 76 | 1022.0 |
| 20260509151553 | 44 | 177 | 0.0 | 0.0 | 0.00 | 0.00 | 0.00 | 79 | 1022.0 |
| 20260509150033 | 42 | 214 | 0.0 | 0.0 | 0.00 | 0.00 | 0.00 | 82 | 1022.0 |
| 20260509144537 | 42 | 213 | 0.0 | 0.0 | 0.00 | 0.00 | 0.00 | 84 | 1021.9 |
| 20260509143008 | 41 | 214 | 0.0 | 0.0 | 0.00 | 0.00 | 0.00 | 86 | 1021.7 |
| 20260509141504 | 40 | 187 | 0.0 | 0.0 | 0.00 | 0.00 | 0.00 | 88 | 1021.8 |
| 20260509140054 | 40 | 223 | 0.0 | 0.0 | 0.00 | 0.00 | 0.00 | 89 | 1021.8 |
| 20260509134542 | 40 | 197 | 0.0 | 0.0 | 0.00 | 0.00 | 0.00 | 89 | 1021.8 |
| 20260509133027 | 39 | 197 | 0.0 | 0.0 | 0.00 | 0.00 | 0.00 | 92 | 1021.8 |
| 20260509131521 | 37 | 197 | 0.0 | 0.0 | 0.00 | 0.00 | 0.00 | 92 | 1021.6 |
| 20260509130006 | 37 | 225 | 0.0 | 0.0 | 0.00 | 0.00 | 0.00 | 93 | 1021.5 |
| 20260509124502 | 37 | 228 | 0.0 | 0.0 | 0.00 | 0.00 | 0.00 | 93 | 1021.4 |
| 20260509123052 | 37 | 229 | 0.0 | 0.0 | 0.00 | 0.00 | 0.00 | 93 | 1021.4 |
| 20260509121549 | 37 | 216 | 0.0 | 0.0 | 0.00 | 0.00 | 0.00 | 93 | 1021.4 |
| 20260509120052 | 37 | 216 | 0.0 | 0.0 | 0.00 | 0.00 | 0.00 | 93 | 1021.4 |
| 20260509114546 | 37 | 205 | 0.0 | 0.0 | 0.00 | 0.00 | 0.00 | 93 | 1021.3 |
| 20260509113044 | 37 | 202 | 0.0 | 0.0 | 0.00 | 0.00 | 0.00 | 92 | 1021.4 |
| 20260509111548 | 37 | 196 | 0.0 | 0.0 | 0.00 | 0.00 | 0.00 | 92 | 1021.1 |
| 20260509110041 | 38 | 229 | 0.0 | 0.0 | 0.00 | 0.00 | 0.00 | 91 | 1021.2 |
| 20260509104544 | 38 | 215 | 0.0 | 0.0 | 0.00 | 0.00 | 0.00 | 91 | 1021.2 |
| 20260509103022 | 38 | 208 | 0.0 | 0.0 | 0.00 | 0.00 | 0.00 | 90 | 1021.3 |
| 20260509101520 | 38 | 219 | 0.0 | 0.0 | 0.00 | 0.00 | 0.00 | 90 | 1021.2 |
| 20260509100004 | 38 | 196 | 0.0 | 0.0 | 0.00 | 0.00 | 0.00 | 90 | 1021.1 |
| 20260509094500 | 38 | 208 | 0.0 | 0.0 | 0.00 | 0.00 | 0.00 | 90 | 1021.1 |
| 20260509093053 | 39 | 203 | 0.0 | 4.0 | 0.00 | 0.00 | 0.00 | 89 | 1021.1 |
| 20260509091541 | 39 | 202 | 0.0 | 8.0 | 0.00 | 0.00 | 0.00 | 88 | 1021.1 |
| 20260509090022 | 39 | 191 | 0.0 | 2.0 | 0.00 | 0.00 | 0.00 | 87 | 1021.1 |
| 20260509084532 | 39 | 200 | 0.0 | 6.0 | 0.00 | 0.00 | 0.00 | 86 | 1021.0 |
| 20260509083000 | 39 | 229 | 0.0 | 4.0 | 0.00 | 0.00 | 0.00 | 86 | 1021.0 |
| 20260509081600 | 40 | 177 | 0.0 | 0.0 | 0.00 | 0.00 | 0.00 | 85 | 1021.1 |
| 20260509080051 | 40 | 203 | 0.0 | 0.0 | 0.00 | 0.00 | 0.00 | 85 | 1021.1 |
| 20260509074540 | 40 | 187 | 0.0 | 0.0 | 0.00 | 0.00 | 0.00 | 84 | 1021.1 |
| 20260509073020 | 40 | 196 | 0.0 | 0.0 | 0.00 | 0.00 | 0.00 | 83 | 1021.0 |
| 20260509071519 | 41 | 186 | 0.0 | 2.0 | 0.00 | 0.00 | 0.00 | 82 | 1020.9 |
| 20260509070005 | 41 | 197 | 0.0 | 8.0 | 0.00 | 0.00 | 0.00 | 80 | 1020.8 |
| 20260509064508 | 41 | 202 | 0.0 | 8.0 | 0.00 | 0.00 | 0.00 | 79 | 1020.9 |
| 20260509063002 | 42 | 201 | 0.0 | 2.0 | 0.00 | 0.00 | 0.00 | 78 | 1020.9 |
| 20260509061601 | 42 | 208 | 1.0 | 12.0 | 0.00 | 0.00 | 0.00 | 77 | 1020.8 |
| 20260509060058 | 42 | 203 | 0.0 | 1.0 | 0.00 | 0.00 | 0.00 | 75 | 1020.8 |
| 20260509054603 | 42 | 209 | 0.0 | 1.0 | 0.00 | 0.00 | 0.00 | 73 | 1020.8 |
| 20260509053101 | 43 | 193 | 0.0 | 9.0 | 0.00 | 0.00 | 0.00 | 71 | 1020.6 |
| 20260509051600 | 44 | 187 | 0.0 | 6.0 | 0.00 | 0.00 | 0.00 | 68 | 1020.6 |
| 20260509050032 | 44 | 218 | 0.0 | 8.0 | 0.00 | 0.00 | 0.00 | 66 | 1020.5 |
| 20260509044532 | 45 | 222 | 0.0 | 9.0 | 0.00 | 0.00 | 0.00 | 64 | 1020.3 |
| 20260509043014 | 45 | 221 | 0.0 | 14.0 | 0.00 | 0.00 | 0.00 | 62 | 1020.4 |
| 20260509041512 | 46 | 206 | 0.0 | 8.0 | 0.00 | 0.00 | 0.00 | 61 | 1020.2 |
| 20260509040111 | 46 | 208 | 2.0 | 13.0 | 0.00 | 0.00 | 0.00 | 60 | 1020.0 |
| 20260509034551 | 46 | 223 | 0.0 | 9.0 | 0.00 | 0.00 | 0.00 | 59 | 1020.0 |
| 20260509033059 | 47 | 177 | 0.0 | 8.0 | 0.00 | 0.00 | 0.00 | 58 | 1019.8 |
| 20260509031532 | 48 | 202 | 0.0 | 8.0 | 0.00 | 0.00 | 0.00 | 57 | 1019.6 |
| 20260509030030 | 48 | 246 | 0.0 | 8.0 | 0.00 | 0.00 | 0.00 | 55 | 1019.6 |
| 20260509024513 | 49 | 250 | 0.0 | 14.0 | 0.00 | 0.00 | 0.00 | 52 | 1019.5 |
| 20260509023011 | 50 | 208 | 0.0 | 5.0 | 0.00 | 0.00 | 0.00 | 48 | 1019.6 |
| 20260509021554 | 51 | 172 | 0.0 | 15.0 | 0.00 | 0.00 | 0.00 | 46 | 1019.4 |
| 20260509020054 | 51 | 156 | 0.0 | 10.0 | 0.00 | 0.00 | 0.00 | 45 | 1019.5 |
| 20260509014543 | 52 | 204 | 0.0 | 13.0 | 0.00 | 0.00 | 0.00 | 45 | 1019.5 |
| 20260509013042 | 52 | 206 | 0.0 | 14.0 | 0.00 | 0.00 | 0.00 | 43 | 1019.4 |
| 20260509011518 | 53 | 262 | 0.0 | 13.0 | 0.00 | 0.00 | 0.00 | 42 | 1019.3 |
| 20260509010018 | 54 | 167 | 0.0 | 11.0 | 0.00 | 0.00 | 0.00 | 39 | 1019.2 |
| 20260509004623 | 55 | 250 | 0.0 | 11.0 | 0.00 | 0.00 | 0.00 | 35 | 1019.3 |
| 20260509003059 | 55 | 279 | 0.0 | 9.0 | 0.00 | 0.00 | 0.00 | 31 | 1019.3 |
| 20260509001541 | 55 | 183 | 0.0 | 12.0 | 0.00 | 0.00 | 0.00 | 28 | 1019.3 |
| 20260509000041 | 55 | 213 | 0.0 | 3.0 | 0.00 | 0.00 | 0.00 | 33 | 1019.3 |
| 20260508234523 | 55 | 167 | 0.0 | 10.0 | 0.00 | 0.00 | 0.00 | 32 | 1019.5 |
| 20260508233027 | 56 | 237 | 0.0 | 6.0 | 0.00 | 0.00 | 0.00 | 35 | 1019.5 |
| 20260508231505 | 57 | 157 | 0.0 | 5.0 | 0.00 | 0.00 | 0.00 | 35 | 1019.5 |
| 20260508230005 | 57 | 167 | 0.0 | 3.0 | 0.00 | 0.00 | 0.00 | 37 | 1019.4 |
| 20260508224607 | 57 | 192 | 0.0 | 1.0 | 0.00 | 0.00 | 0.00 | 44 | 1019.3 |
| 20260508223050 | 56 | 159 | 0.0 | 6.0 | 0.00 | 0.00 | 0.00 | 46 | 1019.5 |
| 20260508221547 | 55 | 148 | 0.0 | 3.0 | 0.00 | 0.00 | 0.00 | 47 | 1019.5 |
| 20260508220047 | 54 | 196 | 0.0 | 8.0 | 0.00 | 0.00 | 0.00 | 50 | 1019.6 |
| 20260508214546 | 53 | 215 | 0.0 | 1.0 | 0.00 | 0.00 | 0.00 | 52 | 1019.6 |
| 20260508213046 | 53 | 200 | 0.0 | 4.0 | 0.00 | 0.00 | 0.00 | 49 | 1019.6 |
| 20260508211544 | 54 | 208 | 0.0 | 6.0 | 0.00 | 0.00 | 0.00 | 47 | 1019.5 |
| 20260508210043 | 54 | 191 | 0.0 | 6.0 | 0.00 | 0.00 | 0.00 | 46 | 1019.3 |
| 20260508204526 | 54 | 208 | 0.0 | 9.0 | 0.00 | 0.00 | 0.00 | 43 | 1019.2 |
| 20260508203024 | 55 | 184 | 0.0 | 0.0 | 0.00 | 0.00 | 0.00 | 41 | 1019.2 |
| 20260508201506 | 54 | 212 | 0.0 | 8.0 | 0.00 | 0.00 | 0.00 | 41 | 1019.1 |
| 20260508200005 | 54 | 194 | 0.0 | 9.0 | 0.00 | 0.00 | 0.00 | 39 | 1019.1 |
| 20260508194602 | 55 | 335 | 0.0 | 9.0 | 0.00 | 0.00 | 0.00 | 35 | 1019.1 |
| 20260508193053 | 54 | 189 | 0.0 | 9.0 | 0.00 | 0.00 | 0.00 | 34 | 1019.1 |
| 20260508191552 | 52 | 187 | 0.0 | 14.0 | 0.00 | 0.00 | 0.00 | 38 | 1019.2 |
| 20260508190045 | 51 | 201 | 0.0 | 9.0 | 0.00 | 0.00 | 0.00 | 39 | 1019.2 |
| 20260508184547 | 50 | 234 | 0.0 | 7.0 | 0.00 | 0.00 | 0.00 | 40 | 1019.4 |